www.pogodaiklimat.ru

АРХИВ ПОГОДЫ в Далласе

Время (UTC), дата Ветер
(напр.,м/с)
 
Видим.   Явления Облачность Т
(С)
Тd
(С)
f
(%)
Тe
(С)
Тes
(С)
Комфортность

P
(гПа)

Po
(гПа)
Тmin
(С)
Tmax
(С)
R
(мм)
SD
(см)
00:39 27.09 С  16 км    10/10 м
[верхняя] 
0.0  0.0  100  -7  -7    1018.8  999.4  +16.7  +18.9     
01:53 27.09 С  16 км    10/10 м
[верхняя] 
0.0  0.0  100  -6  -6    1019.0  999.7  +16.7  +18.9     
02:53 27.09 С  16 км    10/10 м
[верхняя] 
0.0  0.0  100  -7  -7    1019.3  1000.1  +16.7  +18.9     
03:53 27.09 С  16 км    10/10 м
[верхняя] 
  0.0    -4  -4    1018.6  999.4  +16.7  +18.9     
04:53 27.09 С  16 км    10/10 м
[верхняя] 
0.0  0.0  100  -6  -6    1018.2  998.7  +16.7  +18.9     
05:53 27.09 С  16 км    10/10 м
[верхняя] 
0.0  0.0  100  -6  -6    1018.2  998.7  +15.6  +16.7     
06:53 27.09 С  16 км    10/10 м
[верхняя] 
0.0  0.0  100  -7  -7    1018.1  998.7  +15.6  +16.7     
07:53 27.09 С  16 км    10/10 м
[верхняя] 
0.0  0.0  100  -5  -5    1017.9  998.7  +15.6  +16.7     
08:53 27.09 С  16 км    10/10 м
[верхняя] 
0.0  0.0  100  -5  -5    1017.8  998.4  +15.6  +16.7     
09:17 27.09 С  16 км    10/10 м
[верхняя] 
0.0  0.0  100  -5  -5    1017.6  998.4  +15.6  +16.7     
10:53 27.09 С  16 км    10/10 м
[верхняя] 
0.0  0.0  100  -5  -5    1018.0  998.7  +15.6  +16.7     
11:53 27.09 С  16 км    8/8 м
[верхняя] 
+16.0  +12.0  77  +16  +16    1018.1  998.7  +15.6  +22.8     
13:53 27.09 С  16 км    2/2 м
[верхняя] 
+17.8  +12.2  70  +18  +19    1018.5  999.1  +15.6  +22.8     
14:53 27.09 нст  16 км    2/2 м
[верхняя] 
+19.0  +13.0  68  +21  +25  комфорт  1018.4  999.1  +15.6  +22.8     
15:53 27.09 СЗ  16 км    2/2 м
[верхняя] 
+21.0  +13.0  60  +24  +29  комфорт  1017.9  998.7  +15.6  +22.8     
16:53 27.09 С  16 км    2/2 м
[верхняя] 
+22.2  +13.9  59  +25  +32  комфорт  1017.5  998.1  +15.6  +22.8     
17:53 27.09 нст  16 км    2/2 м
[верхняя] 
+23.0  +14.0  57  +26  +39  жарко  1016.6  997.4  +22.2  +26.1     
18:53 27.09 нст  16 км    2/2 м
[верхняя] 
+24.0  +13.0  50  +26  +38  жарко  1015.6  996.4  +22.2  +26.1     
19:53 27.09 штиль  16 км    2/2 м
[верхняя] 
+25.0  +12.8  47  +27  +40  жарко  1014.7  995.4  +22.2  +26.1     
20:53 27.09 нст  16 км    2/2 м
[верхняя] 
+26.0  +13.0  45  +28  +34  жарко  1014.1  995.1  +22.2  +26.1     
21:53 27.09 ЮЗ  16 км    2/2 м
[верхняя] 
+25.0  +13.0  47  +27  +31  жарко  1013.9  994.7  +22.2  +26.1     
22:53 27.09 Ю  16 км    2/2 м
[верхняя] 
+23.9  +13.9  54  +26  +28  жарко  1013.9  994.7  +22.2  +26.1     
23:53 27.09 Ю  16 км    2/0 м
[верхняя] 
+23.0  +14.0  57  +26  +27  жарко  1014.1  995.1  +17.8  +23.9     
00:53 28.09 ЮВ  16 км    2/0 м
[верхняя] 
+21.0  +16.0  73  +25  +25  комфорт  1015.0  995.7  +17.8  +23.9     
01:53 28.09 ЮВ  16 км    ясно  +20.0  +16.1  78  +22  +22  комфорт  1015.9  996.7  +17.8  +23.9     
02:53 28.09 ЮВ  16 км    ясно  +18.0  +16.0  88  +18  +18    1015.8  996.4  +17.8  +23.9     
03:53 28.09 ЮВ  16 км    ясно  +18.0  +16.0  88  +18  +18    1015.9  996.7  +17.8  +23.9     
04:53 28.09 ЮВ  16 км    ясно  +17.8  +16.1  90  +18  +18    1016.0  996.7  +17.8  +23.9     
05:53 28.09 ЮВ  16 км    10/10 м
[верхняя средняя] 
+17.0  +16.0  94  +17  +17    1015.9  996.7  +15.6  +17.8     
06:53 28.09 ЮВ  16 км    10/10 м
[верхняя средняя] 
+17.0  +16.0  94  +17  +17    1015.7  996.7  +15.6  +17.8     
07:53 28.09 ЮВ  16 км    10/10 м
[верхняя средняя] 
+16.1  +15.0  93  +16  +16    1015.6  996.4  +15.6  +17.8     
08:53 28.09 ЮВ  14 км    10/10 м
[верхняя средняя] 
+16.0  +16.0  100  +16  +16    1016.2  997.1  +15.6  +17.8     
09:53 28.09 ЮВ  11 км    10/10 м
[верхняя средняя] 
+16.0  +15.0  94  +16  +16    1016.6  997.4  +15.6  +17.8     
10:53 28.09 Ю  10 км    10/10 м
[верхняя средняя] 
+16.7  +15.6  93  +16  +16    1016.7  997.4  +15.6  +17.8     
11:31 28.09 ЮВ  11 км    10/10 м
[верхняя средняя] 
+17.0  +16.0  94  +17  +17    1017.4  998.1  +16.7  +22.2     
12:53 28.09 ЮВ  8 км    10/10 м
[верхняя средняя] 
+18.0  +17.0  94  +18  +18    1017.9  998.7  +16.7  +22.2     
13:53 28.09 ЮВ  13 км    10/10 м
[верхняя средняя] 
+19.4  +17.2  87  +22  +22  комфорт  1018.5  999.4  +16.7  +22.2     
14:53 28.09 ЮВ  16 км    10/10 м
[верхняя средняя] 
+21.0  +17.0  78  +25  +25  комфорт  1018.9  999.7  +16.7  +22.2     
15:12 28.09 ЮВ  16 км    10/10 м
[верхняя средняя] 
+21.0  +17.0  78  +25  +25  комфорт  1019.1  999.7  +16.7  +22.2     
16:53 28.09 Ю  16 км    10/10 м
[верхняя средняя] 
+22.2  +17.2  73  +27  +27  душно  1018.7  999.4  +16.7  +22.2     
17:53 28.09 Ю  16 км  гроза со слабым дождем  10/10 м
[верхняя средняя] 
+23.0  +17.0  69  +28  +28  душно  1018.0  998.7  +22.2  +25.0     
18:53 28.09 ЮВ  16 км    10/10 м
[верхняя средняя] 
+23.0  +17.0  69  +28  +28  душно  1017.4  998.1  +22.2  +25.0     
19:53 28.09 В  16 км    10/10 м
[верхняя средняя] 
+23.9  +17.2  66  +28  +28  душно  1016.7  997.4  +22.2  +25.0     
20:19 28.09 ЮВ  16 км    10/10 м
[верхняя средняя] 
+24.0  +17.0  65  +28  +28  душно  1016.4  997.4  +22.2  +25.0     
21:53 28.09 ЮВ  16 км    10/10 м
[верхняя средняя] 
+25.0  +18.0  65  +29  +29  душно  1016.5  997.4  +22.2  +25.0     
22:53 28.09 В  16 км    10/10 м
[верхняя средняя] 
+23.9  +17.8  69  +28  +28  душно  1016.5  997.4  +22.2  +25.0     
23:53 28.09 ЮВ  16 км    10/10 м
[верхняя средняя] 
+23.0  +18.0  73  +28  +28  душно  1016.9  997.7  +20.6  +23.9     
00:53 29.09 В  16 км    10/10 м
[верхняя средняя] 
+23.0  +18.0  73  +28  +28  душно  1017.5  998.4  +20.6  +23.9     

 

Местоположение метеостанции Dallas / Fort Worth International Airport: широта 32.8974 долгота -97.0220 высота над уровнем моря 165 м.

В архиве по умолчанию представлена погода в Далласе за последние 1-2 суток. Обновление информации о фактической погоде в базе происходит ежечасно! Архивные данные за месяц целиком и за предыдущие месяцы Вы можете получить, выбрав интересующий диапазон дат из раскрывающегося списка и нажав кнопку "Ввод!".

Внимание! Архив погоды МЕТАР в базе сайта в настоящее время начинается c 1 января 2013 г. Нет смысла пытаться выбрать более раннюю дату.

Внимание! Время в таблицах - всемирное. Для получения местного времени необходимо прибавить поправку, которая в Далласе равна -6 ч.

Ветер - указаны скорость ветра в м/с и направление, откуда дует ветер: С - северный, СВ - северо-восточный, В - восточный, ЮВ - юго-восточный, Ю - южный, ЮЗ - юго-западный, З - западный, СЗ - северо-западный.
Видимость - горизонтальная дальность видимости в метрах или километрах. При видимости от 1 до 10 км при отсутствии осадков обычно наблюдается дымка, при ухудшении видимости до 1 км и менее - туман. В сухую погоду видимость может ухудшаться дымом, пылью или мглою.
Атмосферные явления - указаны явления, наблюдавшиеся в указанный момент времени.
Облачность - указаны через наклонную черту верхняя и нижняя облачность в баллах и высота нижней границы облаков в метрах. Внимание: облачность, как и прочие метеорологические величины в США измеряются автоматическими метеостанциями. Указанные значения в баллах носят условный характер и показывают процент времени, в течение которого, в среднем, лазерный луч высотомера отражался от облаков обратно.
T - Температура воздуха - температура, измеренная на высоте 2 м над землей.
Td - Температура точки росы - температура, при понижении до которой содержащийся в воздухе водяной пар достигнет насыщения.
f - Относительная влажность воздуха - влажноcть воздуха, измеренная на высоте 2 м над землей.
Te - Эффективная температура - температура, которую ощущает одетый по сезону человек в тени. Характеристика душности погоды. При расчете учитывается влияние влажности воздуха и скорости ветра на теплоощущения человека.
Tes - Эффективная температура на солнце - температура, которую ощущает человек, с поправкой на солнечный нагрев. Характеристика знойности погоды. Зависит от высоты солнца над горизонтом, облачности и скорости ветра. Ночью, в пасмурную погоду, а также при ветре 12 м/с и более поправка равна нулю.
P - Атмосферное давление - приведенное к уровню моря атмосферное давление.
Po - Атмосферное давление - измеренное на уровне метеостанции атмосферное давление.
Tmin - Минимальная температура - минимум температуры воздуха на высоте 2 м над землей.
Tmax - Максимальная температура - максимум температуры воздуха на высоте 2 м над землей.
R - Количество осадков - Количество выпавших осадков за 3 или 6 часов, мм.
SD - Снежный покров - Высота снежного покрова, см.